Location: Chaumeray
(47.8808°N, 1.8609°W)
Time: 22:15:10
(UTC+00:00)

Daily predictions for brighter satellites

Satellite Brightness Start Highest point End
(mag) Time Altitude Azimuth Time Altitude Azimuth Time Altitude Azimuth
BREEZE-M DEB (TANK) 4.5 20:34:49 10° W 20:38:41 82° N 20:55:46 10° E
Cosmos 2219 Rocket 2.3 20:43:26 10° NNW 20:49:10 89° ENE 20:54:51 10° SSE
ATLAS CENTAUR R/B 3.7 20:48:42 10° W 20:51:44 26° NW 20:54:52 10° NNE
BREEZE-M DEB (TANK) 3.4 20:48:18 10° WSW 20:51:50 79° SSE 21:04:15 10° ENE
ATLAS 2AS CENTAUR R/B 3.4 20:47:47 10° NW 20:54:17 49° WSW 21:00:34 10° SSE
CZ-4 R/B 4.3 20:52:47 10° WSW 20:54:31 12° W 20:56:15 10° WNW
Cosmos 1733 Rocket 3.2 20:53:00 10° NNW 20:57:27 81° W 21:01:53 10° S
NOSS 5 (C) 4.5 20:55:42 10° NW 20:58:52 62° NE 21:02:05 10° SE
Cosmos 1455 2.9 20:56:29 10° N 20:59:43 33° ENE 21:02:55 10° SE
Spot 2 Rocket 3.7 20:57:18 10° SSE 21:02:16 59° ENE 21:07:17 10° N
Cosmos 1655 Rocket 4.2 20:57:11 10° S 21:03:36 82° W 21:10:02 10° N
SPOT 3 Rocket 3.9 20:59:17 10° SE 21:04:17 53° ENE 21:09:20 10° N
Resurs 01 Rocket 4.1 21:05:09 10° SW 21:08:16 19° W 21:11:23 10° NW
Meteor 2-20 Rocket 4.5 21:05:03 10° N 21:11:13 71° ENE 21:17:05 10° SSE
GENESIS II 4.4 21:07:37 10° SW 21:11:14 67° NW 21:14:52 10° NE
SeaSat 1 2.8 21:08:39 10° SE 21:13:26 56° NE 21:18:16 10° NNW
Cosmos 2360 Rocket 3.7 21:13:48 10° NW 21:18:40 30° WSW 21:23:31 10° SSW
Cosmos 158 Rocket 4.3 21:13:37 10° NNW 21:18:49 57° ENE 21:23:25 12° SE
Cosmos 1953 2.3 21:15:24 10° N 21:19:12 65° E 21:22:42 12° SSE
Cosmos 1908 Rocket 3.7 21:15:10 10° N 21:19:26 57° ENE 21:23:22 12° SSE
COSMOS 2428 2.8 21:14:00 10° NNW 21:19:44 76° ENE 21:25:01 12° SSE
Cosmos 2208 Rocket 4.2 21:15:18 10° NNW 21:20:27 61° ENE 21:25:05 13° SE
Cosmos 1782 Rocket 4.5 21:19:21 10° N 21:23:19 34° ENE 21:26:41 13° SE
CENTAUR R/B 3.9 21:23:45 12° SE 21:26:20 15° ESE 21:29:48 10° ENE
Ariane Rocket 3.0 21:22:32 10° SSE 21:27:38 89° ENE 21:32:45 10° NNW
EXPRESS MD2 2.6 21:26:00 10° WNW 21:28:44 58° N 21:30:53 10° E
Cosmos 2084 Rocket 4.1 21:27:13 10° S 21:31:04 32° ESE 21:34:49 10° ENE
Cosmos 1486 Rocket 4.4 21:32:02 10° S 21:36:56 44° ESE 21:41:52 10° NE
Cosmos 1315 Rocket 3.1 21:34:27 10° SSW 21:38:24 68° WNW 21:42:24 10° N
NOSS 8 (F) 4.5 21:37:55 10° SW 21:41:55 83° NW 21:45:04 10° NE
BREEZE-M DEB (TANK) 3.7 21:37:39 10° W 21:43:46 41° NNW 21:46:13 10° ENE
GP-B 3.8 21:40:01 10° NNE 21:44:11 39° E 21:47:06 17° SSE
MetOp-A 4.2 21:40:03 15° SSE 21:44:21 62° ENE 21:49:26 10° N
ARIANE 5 R/B 4.2 21:41:49 12° ESE 21:44:56 24° ENE 21:48:25 10° N
SJ 16-02 3.3 21:41:34 10° WSW 21:45:24 31° WNW 21:49:18 10° N
NOSS 0 Rocket 4.0 21:39:45 10° NNW 21:46:03 84° ENE 21:51:08 16° SSE
BlueWalker 3 2.9 21:43:18 10° W 21:46:57 49° NNW 21:50:36 10° ENE
Cosmos 371 Rocket 3.6 21:43:55 12° S 21:48:13 47° ESE 21:52:52 10° NNE
SL-4 R/B 2.6 21:45:21 10° WNW 21:48:59 40° SW 21:51:27 19° SSE
USA 234 3.4 21:45:01 10° ENE 21:51:19 48° SE 21:57:35 10° SSW
MOS 1 Rocket 4.1 21:46:23 10° S 21:51:37 56° W 21:56:39 10° NNW
Meteor 1-4 Rocket 4.5 21:49:32 10° SW 21:52:01 23° WNW 21:54:30 10° NNW
Terra 2.7 21:48:19 10° S 21:52:49 43° W 21:57:19 10° NNW
Spot 1 4.3 21:51:20 10° NNE 21:56:04 70° ESE 22:00:40 12° S
Okean 1-7 3.8 21:52:25 10° SSW 21:56:37 51° WNW 22:00:50 10° N
SL-16 R/B 3.8 21:54:05 10° N 21:58:50 26° NE 22:03:33 10° ESE
H-2A R/B 4.5 21:56:27 10° ESE 21:59:19 18° ENE 22:02:11 10° NNE
Cosmos 1386 Rocket 4.5 21:54:35 11° S 22:00:36 77° E 22:06:45 10° NNE
Cosmos 2237 Rocket 2.4 21:55:11 10° NNW 22:00:51 66° ENE 22:05:00 18° SE
Landsat 5 3.4 21:57:24 10° NNE 22:01:33 76° ESE 22:05:09 14° S
Cosmos 1703 Rocket 3.8 21:57:36 10° SSW 22:02:02 70° W 22:06:28 10° N
COSMOS 2455 2.8 21:57:10 10° SSW 22:03:12 84° ESE 22:09:16 10° NE
Cosmos 1242 Rocket 3.2 22:01:45 10° SW 22:04:18 36° WNW 22:06:50 10° N
Cosmos 1745 Rocket 4.1 21:58:43 13° S 22:04:24 72° E 22:10:45 10° NNE
CZ-4C R/B 1.8 22:00:54 10° SW 22:05:22 83° SE 22:11:03 10° NE
USA 281 4.0 22:00:04 12° ESE 22:05:45 43° NE 22:11:54 10° NNW
Cosmos 2227 Rocket 3.1 22:03:20 19° SSE 22:06:18 30° ESE 22:11:08 10° NE
Nadezhda 1 Rocket 4.0 22:01:56 10° N 22:08:14 90° WSW 22:13:03 17° S
Meteor 2-5 Rocket 4.4 22:05:17 19° SSE 22:09:02 40° E 22:14:23 10° NNE
Cosmos 773 Rocket 3.9 22:09:27 10° NNW 22:14:38 88° ENE 22:18:03 22° SSE
Cosmos 1980 3.7 22:09:40 10° NNW 22:15:23 88° ENE 22:19:14 22° SSE
Cosmos 304 Rocket 3.7 22:13:19 14° SSW 22:17:21 73° ESE 22:22:07 10° NNE
Cosmos 2297 Rocket 2.1 22:19:32 10° SSW 22:25:04 75° ESE 22:30:44 10° NNE
ALOS 2 4.3 22:25:43 14° ESE 22:28:22 23° ENE 22:31:50 10° NNE
Cosmos 2219 Rocket 4.4 22:29:04 10° WNW 22:32:17 16° W 22:35:29 10° SW
Cosmos 1455 4.4 22:31:32 10° NW 22:33:51 17° W 22:36:10 10° SW
Cosmos 1703 3.0 22:33:06 30° S 22:34:46 75° E 22:38:27 10° NNE
CZ-2C R/B 3.7 22:30:22 10° NNE 22:34:47 61° ESE 22:37:07 27° S
Cosmos 1408 2.8 22:33:30 23° SW 22:35:02 49° WNW 22:37:58 10° N
Cosmos 2098 Rocket 4.1 22:28:43 10° N 22:35:13 66° ENE 22:38:52 24° SSE
NOSS 3-2 (A) 4.1 22:33:40 24° SE 22:35:20 28° ESE 22:40:15 10° ENE
Cosmos 2181 Rocket 4.3 22:32:01 10° N 22:38:03 54° ENE 22:41:46 23° SE
Cosmos 2219 4.1 22:37:54 23° SE 22:40:01 30° ESE 22:44:50 10° NE
Cosmos 1777 Rocket 4.0 22:39:06 17° SSW 22:43:11 84° ESE 22:48:30 10° NNE
Cosmos 332 Rocket 3.9 22:41:57 26° S 22:44:33 58° ESE 22:49:22 10° NNE
BREEZE-M DEB (TANK) 3.7 22:42:17 10° WNW 22:45:21 75° N 22:54:26 10° E
Cosmos 1825 3.1 22:44:58 26° ESE 22:45:31 27° E 22:48:28 10° NNE
Cosmos 2263 Rocket 3.4 22:44:08 21° SE 22:45:50 24° ESE 22:50:11 10° NE
Meteor 1-24 Rocket 3.7 22:42:45 23° S 22:46:28 78° E 22:51:59 10° NNE
Cosmos 2221 Rocket 4.3 22:46:44 27° SE 22:48:22 38° E 22:52:27 10° NNE
SeaSat 1 4.0 22:48:17 15° SSW 22:51:09 24° WSW 22:55:09 10° NW
Cosmos 1503 Rocket 4.3 22:48:34 12° SSW 22:53:28 69° WNW 22:58:46 10° NNE
Sich 1 Rocket 3.8 22:49:52 10° N 22:54:11 56° ENE 22:56:03 31° SE
Cosmos 2242 Rocket 4.2 22:52:19 18° SSW 22:55:35 53° WNW 23:00:05 10° N
Okean 1 Rocket 3.9 22:51:29 10° N 22:55:36 38° ENE 22:57:31 25° SE
Cosmos 1538 Rocket 4.5 22:50:40 10° NNW 22:55:48 54° ENE 22:58:51 24° SE
PSLV R/B 3.8 22:53:10 10° NNE 22:57:09 74° ESE 22:58:44 35° S
Cosmos 1818 4.3 22:55:04 10° NNW 23:00:24 50° NE 23:04:38 16° ESE
Cosmos 1709 Rocket 4.3 22:58:05 16° SSW 23:03:10 65° WNW 23:09:28 10° N
Cosmos 1892 2.7 23:03:07 43° SE 23:03:52 53° E 23:07:19 10° NNE
Spot 4 3.9 23:03:31 30° SSE 23:05:50 72° ENE 23:10:40 10° N
Cosmos 1025 Rocket 4.1 23:12:05 26° ESE 23:13:20 31° E 23:17:08 10° NNE
SL-23 DEB 4.5 23:09:20 10° WSW 23:13:30 82° SSE 23:20:56 10° ENE
CENTAUR R/B 2.4 23:10:49 16° SSW 23:15:29 81° SE 23:22:35 10° NE
Cosmos 405 Rocket 3.3 23:13:15 10° NNW 23:16:52 44° W 23:18:05 32° SW
ARIANE 5 R/B 3.4 23:19:17 27° SSW 23:21:06 41° W 23:25:16 10° NNW
Cosmos 1455 Rocket 4.2 23:20:42 10° N 23:24:47 34° ENE 23:26:44 23° ESE
BlueWalker 3 3.5 23:22:09 10° WNW 23:25:38 35° N 23:29:07 10° ENE
Cosmos 1328 4.0 23:25:24 42° SE 23:26:20 54° E 23:30:08 10° NNE
Cosmos 1898 Rocket 4.2 23:25:20 30° SE 23:27:01 39° ESE 23:31:48 10° NE
Cosmos 1378 Rocket 3.7 23:25:05 31° SSW 23:27:04 67° W 23:31:29 10° N
Aureole 1 Rocket 3.4 23:26:55 38° SE 23:27:58 47° ESE 23:32:44 10° NNE
Cosmos 2184 Rocket 4.1 23:26:26 29° S 23:29:54 74° E 23:36:17 10° NNE
Cosmos 1674 Rocket 3.6 23:29:17 34° SSW 23:31:05 73° W 23:35:24 10° N
H-2A R/B 2.8 23:32:26 36° SSW 23:33:53 54° W 23:38:00 10° NNW
USA 234 3.6 23:28:02 10° NE 23:34:31 68° NNW 23:41:00 10° WSW
SL-16 R/B 2.3 23:37:47 10° NNW 23:43:28 68° WSW 23:46:02 33° S
Cosmos 2237 Rocket 3.8 23:40:09 10° NW 23:44:22 22° W 23:46:48 17° SW
Cosmos 990 Rocket 4.1 23:45:21 25° SW 23:48:18 69° WNW 23:53:27 10° NNE
Cosmos 2154 Rocket 4.0 23:45:18 30° S 23:48:36 83° E 23:54:57 10° N
Cosmos 1943 3.8 23:44:25 10° NNW 23:49:54 50° NE 23:53:53 18° SE
Cosmos 2227 Rocket 2.9 23:45:04 12° SW 23:50:05 50° WNW 23:55:37 10° NNE
USA 281 3.7 23:46:56 27° SSW 23:50:11 47° WSW 23:56:32 10° NW
Cosmos 2082 3.6 23:50:40 32° S 23:53:19 73° ESE 23:58:56 10° NNE
PSLV R/B 3.5 23:49:31 10° NNE 23:53:43 68° ESE 23:54:55 44° S
USA 238 DEB 4.5 23:52:03 25° SE 23:53:58 29° ESE 23:59:31 10° NE
Okean 2 Rocket 4.1 23:50:25 10° NNW 23:54:32 36° W 23:56:12 26° SW
CZ-4C R/B 4.2 23:50:14 10° W 23:54:33 28° NNW 23:59:48 10° NNE
Cosmos 292 Rocket 3.7 23:52:49 36° SSW 23:54:49 87° ESE 23:59:40 10° NNE
